Weather History for KIKK - April, 2014

Change the Weather History Date:

Wednesday, April 2, 2014

  Actual Average Record
Temperature  
Mean Temperature 42 °F -  
Max Temperature 48 °F 53 °F 80 °F (2003)
Min Temperature 37 °F 33 °F 19 °F (2013)
Degree Days  
Heating Degree Days 22    
Moisture  
Dew Point 32 °F    
Average Humidity 67    
Maximum Humidity 83    
Minimum Humidity 56    
Precipitation  
Precipitation 0.00 in - - ()
Sea Level Pressure  
Sea Level Pressure 30.09 in    
Wind  
Wind Speed 7 mph (NE)    
Max Wind Speed 16 mph    
Max Gust Speed 24 mph    
Visibility 10 miles    
Events Rain , Thunderstorm    
Averages and records for this station are not official NWS values.
T = Trace of Precipitation, MM = Missing Value Source: NWS Daily Summary

Daily Weather History Graph

Daily Weather History Graph

Search for Another Location

Airport or City:

Trip Planner

Search our weather history database for the weather conditions in past years. The results will help you decide how hot, cold, wet, or windy it might be!

Date:

Astronomy

Apr. 02, 2014 Rise Set
Actual Time 6:33 AM CDT 7:17 PM CDT
Civil Twilight 6:05 AM CDT 7:45 PM CDT
Nautical Twilight 5:32 AM CDT 8:18 PM CDT
Astronomical Twilight 4:58 AM CDT 8:52 PM CDT
Moon 8:15 AM CDT (4/2) 10:42 PM CDT (4/2)
Length of Visible Light 13h 40m
Length of Day
12h 44m
Waxing Crescent, 10% of the Moon is Illuminated
Apr 2
Waxing Crescent
Apr 7
First Quarter
Apr 15
Full
Apr 22
Last Quarter
Apr 29
New

Hourly Weather History & Observations

Time (CDT) Temp. Windchill Dew Point Humidity Pressure Visibility Wind Dir Wind Speed Gust Speed Precip Events Conditions
12:15 AM 43.3 °F 39.9 °F 31.3 °F 62% 30.09 in 10.0 mi NW 5.8 mph - N/A   Mostly Cloudy
12:35 AM 43.2 °F 39.7 °F 31.3 °F 63% 30.09 in 10.0 mi WNW 5.8 mph - N/A   Mostly Cloudy
12:55 AM 42.6 °F 39.9 °F 31.3 °F 64% 30.09 in 10.0 mi NW 4.6 mph - N/A   Scattered Clouds
1:15 AM 42.1 °F 38.4 °F 31.5 °F 66% 30.09 in 10.0 mi WNW 5.8 mph - N/A   Scattered Clouds
1:35 AM 42.1 °F - 31.6 °F 67% 30.09 in 10.0 mi Calm Calm - N/A   Scattered Clouds
1:55 AM 41.7 °F 39.8 °F 31.6 °F 67% 30.09 in 10.0 mi NNW 3.5 mph - N/A   Scattered Clouds
2:15 AM 41.9 °F 38.2 °F 31.8 °F 67% 30.09 in 10.0 mi NW 5.8 mph - N/A   Mostly Cloudy
2:35 AM 41.9 °F 40.0 °F 31.1 °F 66% 30.09 in 10.0 mi NNW 3.5 mph - N/A   Overcast
2:55 AM 41.9 °F 38.2 °F 31.1 °F 66% 30.10 in 10.0 mi NNW 5.8 mph - N/A   Overcast
3:15 AM 41.0 °F 39.0 °F 30.9 °F 67% 30.10 in 10.0 mi NNW 3.5 mph - N/A   Overcast
3:35 AM 41.0 °F - 31.1 °F 68% 30.10 in 10.0 mi Calm Calm - N/A   Overcast
3:55 AM 40.8 °F - 31.3 °F 69% 30.09 in 10.0 mi Calm Calm - N/A   Overcast
4:15 AM 41.0 °F - 31.6 °F 69% 30.09 in 10.0 mi Calm Calm - N/A   Overcast
4:35 AM 40.8 °F - 31.3 °F 69% 30.10 in 10.0 mi Calm Calm - N/A   Overcast
4:55 AM 40.5 °F - 31.6 °F 71% 30.09 in 10.0 mi Calm Calm - N/A   Overcast
5:15 AM 38.7 °F 35.2 °F 32.2 °F 78% 30.09 in 10.0 mi ENE 4.6 mph - N/A   Overcast
5:35 AM 39.2 °F 37.0 °F 32.0 °F 75% 30.10 in 10.0 mi North 3.5 mph - N/A   Overcast
5:55 AM 38.8 °F 36.5 °F 32.0 °F 76% 30.11 in 10.0 mi NNE 3.5 mph - N/A   Overcast
6:15 AM 37.4 °F - 31.6 °F 80% 30.12 in 10.0 mi Calm Calm - N/A   Scattered Clouds
7:35 AM 38.1 °F - 33.3 °F 83% 30.15 in 10.0 mi Calm Calm - N/A   Mostly Cloudy
7:55 AM 39.6 °F - 32.9 °F 77% 30.16 in 10.0 mi Calm Calm - N/A   Mostly Cloudy
8:15 AM 40.5 °F 35.1 °F 32.7 °F 74% 30.15 in 10.0 mi East 8.1 mph - N/A   Scattered Clouds
8:35 AM 41.2 °F 35.0 °F 32.0 °F 70% 30.14 in 10.0 mi ENE 10.4 mph - N/A   Clear
8:55 AM 41.7 °F 35.6 °F 32.0 °F 68% 30.14 in 10.0 mi NE 10.4 mph - N/A   Clear
9:15 AM 42.6 °F 35.9 °F 32.0 °F 66% 30.14 in 10.0 mi ENE 12.7 mph - N/A   Clear
9:35 AM 43.0 °F 37.2 °F 31.8 °F 65% 30.14 in 10.0 mi ENE 10.4 mph - N/A   Clear
9:55 AM 44.2 °F 40.3 °F 31.6 °F 61% 30.15 in 10.0 mi NE 6.9 mph - N/A   Clear
10:15 AM 44.6 °F 39.7 °F 32.0 °F 61% 30.15 in 10.0 mi ENE 9.2 mph - N/A   Mostly Cloudy
10:35 AM 44.8 °F 40.4 °F 32.0 °F 61% 30.14 in 10.0 mi NE 8.1 mph - N/A   Overcast
10:55 AM 45.0 °F 39.7 °F 32.0 °F 60% 30.15 in 10.0 mi NE 10.4 mph - N/A   Overcast
11:35 AM 45.5 °F 41.3 °F 32.0 °F 59% 30.14 in 10.0 mi ENE 8.1 mph - N/A   Overcast
11:55 AM 46.4 °F 42.4 °F 32.2 °F 58% 30.14 in 10.0 mi ENE 8.1 mph - N/A   Scattered Clouds
12:15 PM 46.2 °F 43.3 °F 32.2 °F 58% 30.15 in 10.0 mi ENE 5.8 mph - N/A   Scattered Clouds
12:35 PM 46.4 °F 43.5 °F 32.2 °F 58% 30.15 in 10.0 mi NE 5.8 mph - N/A   Overcast
12:55 PM 46.8 °F - 32.4 °F 57% 30.15 in 10.0 mi NNE 8.1 mph - N/A   Overcast
1:15 PM 47.3 °F - 32.9 °F 57% 30.14 in 10.0 mi NE 9.2 mph - N/A   Overcast
1:35 PM 47.3 °F - 33.3 °F 58% 30.12 in 10.0 mi NE 9.2 mph - N/A   Overcast
1:55 PM 47.7 °F - 33.3 °F 57% 30.10 in 10.0 mi NE 11.5 mph - N/A   Overcast
2:15 PM 48.2 °F - 33.3 °F 56% 30.10 in 10.0 mi ENE 10.4 mph 16.1 mph N/A   Overcast
2:35 PM 47.8 °F - 33.6 °F 58% 30.11 in 10.0 mi NNE 8.1 mph - N/A   Overcast
2:55 PM 47.3 °F - 33.8 °F 59% 30.08 in 10.0 mi NE 11.5 mph - N/A   Overcast
3:15 PM 48.2 °F - 34.0 °F 58% 30.06 in 10.0 mi NE 12.7 mph - N/A   Overcast
3:35 PM 47.8 °F - 34.0 °F 59% 30.06 in 10.0 mi NE 11.5 mph 17.3 mph N/A   Overcast
3:55 PM 48.0 °F - 34.3 °F 59% 30.07 in 10.0 mi NE 9.2 mph - N/A   Overcast
4:15 PM 47.3 °F - 33.6 °F 59% 30.07 in 10.0 mi NE 10.4 mph - N/A   Overcast
4:35 PM 46.8 °F - 33.4 °F 60% 30.07 in 10.0 mi NNE 11.5 mph 16.1 mph N/A   Overcast
4:55 PM 44.6 °F 38.8 °F 32.0 °F 61% 30.06 in 10.0 mi NNE 11.5 mph 18.4 mph N/A   Overcast
5:15 PM 44.2 °F 38.0 °F 32.5 °F 63% 30.05 in 10.0 mi NNE 12.7 mph 18.4 mph N/A   Overcast
5:35 PM 43.2 °F 35.9 °F 32.0 °F 65% 30.05 in 10.0 mi NE 15.0 mph 19.6 mph N/A   Overcast
5:55 PM 41.9 °F 34.0 °F 32.0 °F 68% 30.04 in 10.0 mi NE 16.1 mph 20.7 mph N/A   Overcast
6:15 PM 40.8 °F 32.9 °F 31.5 °F 69% 30.05 in 10.0 mi NE 15.0 mph 24.2 mph N/A   Overcast
6:35 PM 40.1 °F 33.2 °F 31.5 °F 71% 30.05 in 10.0 mi NE 11.5 mph 20.7 mph N/A   Overcast
6:55 PM 40.1 °F 32.0 °F 31.1 °F 70% 30.06 in 10.0 mi NE 15.0 mph 20.7 mph N/A   Overcast
7:15 PM 39.4 °F 31.1 °F 30.9 °F 72% 30.06 in 10.0 mi NE 15.0 mph - N/A Thunderstorm Overcast
7:35 PM 39.0 °F 30.3 °F 30.4 °F 71% 30.04 in 10.0 mi NE 16.1 mph 23.0 mph N/A   Overcast
7:55 PM 38.7 °F 30.9 °F 30.6 °F 73% 30.05 in 10.0 mi NNE 12.7 mph - N/A   Overcast
8:15 PM 38.5 °F 30.3 °F 30.2 °F 72% 30.05 in 10.0 mi NNE 13.8 mph 18.4 mph N/A   Overcast
8:35 PM 38.5 °F 29.6 °F 30.0 °F 72% 30.06 in 10.0 mi NNE 16.1 mph 20.7 mph N/A   Overcast
8:55 PM 38.3 °F 29.7 °F 30.2 °F 73% 30.04 in 10.0 mi NE 15.0 mph 21.9 mph N/A   Overcast
9:15 PM 38.5 °F 30.3 °F 29.8 °F 71% 30.05 in 10.0 mi NE 13.8 mph - N/A   Overcast
9:35 PM 38.3 °F 30.1 °F 29.3 °F 70% 30.05 in 10.0 mi NE 13.8 mph - N/A   Overcast
9:55 PM 38.5 °F 31.1 °F 29.3 °F 70% 30.04 in 10.0 mi NNE 11.5 mph - N/A   Overcast
10:15 PM 38.3 °F 30.5 °F 29.3 °F 70% 30.04 in 10.0 mi NE 12.7 mph 17.3 mph N/A   Overcast
10:35 PM 38.3 °F 30.1 °F 30.0 °F 72% 30.03 in 10.0 mi NE 13.8 mph 19.6 mph N/A   Drizzle
10:55 PM 37.8 °F 30.7 °F 31.1 °F 77% 30.05 in 10.0 mi NE 10.4 mph - N/A Thunderstorm Overcast
11:15 PM 38.3 °F 31.9 °F 31.1 °F 75% 30.03 in 10.0 mi NE 9.2 mph - N/A   Overcast
11:35 PM 39.2 °F 34.2 °F 31.6 °F 74% 30.03 in 10.0 mi NE 6.9 mph - N/A Rain Rain
11:55 PM 38.3 °F 31.9 °F 32.4 °F 79% 30.02 in 10.0 mi NE 9.2 mph - N/A   Light Drizzle